Location: Newark
(35.2672°N, 80.7344°W)
Time: 05:38:39
(UTC+00:00)

Vanguard 2 - All Passes

Search period start: 19 January 2020 00:00
Search period end: 29 January 2020 00:00
Orbit: 553 x 2938 km, 32.9° (Epoch: 18 January)

Date Brightness Start Highest point End Pass type
(mag) Time Alt. Az. Time Alt. Az. Time Alt. Az.
19 Jan - 00:19:25 10° WSW 00:21:49 15° SSW 00:24:22 10° SSE visible
19 Jan - 15:56:48 10° SSW 16:05:46 24° SSE 16:12:05 10° ESE daylight
19 Jan - 18:06:20 10° SW 18:15:18 49° SSE 18:20:51 10° E daylight
19 Jan - 20:17:27 10° W 20:23:58 69° S 20:28:21 10° E daylight
19 Jan - 22:27:39 10° W 22:31:57 39° SSW 22:35:38 10° SE daylight
20 Jan - 14:08:34 10° S 14:13:25 12° SSE 14:17:39 10° SE daylight
20 Jan - 16:13:32 10° SW 16:23:50 32° SSE 16:30:36 10° E daylight
20 Jan - 18:24:10 10° WSW 18:33:16 59° S 18:38:46 10° E daylight
20 Jan - 20:35:32 10° W 20:41:52 68° S 20:46:10 10° ESE daylight
20 Jan - 22:45:49 10° W 22:49:41 28° SSW 22:53:07 10° SE daylight
21 Jan - 14:22:50 10° S 14:31:33 19° SSE 14:38:19 10° ESE daylight
21 Jan - 16:30:44 10° SW 16:41:52 41° SSE 16:48:49 10° E daylight
21 Jan - 18:42:11 10° WSW 18:51:13 67° S 18:56:39 10° E daylight
21 Jan - 20:53:38 10° W 20:59:45 61° S 21:03:59 10° ESE daylight
21 Jan - 23:04:13 10° WSW 23:07:22 19° SSW 23:10:16 10° SSE visible
22 Jan - 14:38:39 10° SSW 14:49:37 26° SSE 14:57:32 10° E daylight
22 Jan - 16:48:15 10° SW 16:59:52 51° SSE 17:06:52 10° E daylight
22 Jan - 19:00:18 10° W 19:09:10 72° S 19:14:31 10° E daylight
22 Jan - 21:11:45 10° W 21:17:34 51° SSW 21:21:42 10° ESE daylight
22 Jan - 23:23:18 10° WSW 23:25:01 12° SSW 23:26:39 10° S visible
23 Jan - 12:51:16 10° SSE 12:56:46 13° SE 13:01:41 10° ESE daylight
23 Jan - 14:55:13 10° SSW 15:07:41 34° SSE 15:16:09 10° E daylight
23 Jan - 17:06:03 10° WSW 17:17:52 60° SSE 17:24:49 10° E daylight
23 Jan - 19:18:27 10° W 19:27:07 74° S 19:32:21 10° E daylight
23 Jan - 21:29:55 10° W 21:35:19 39° SSW 21:39:17 10° SE daylight
24 Jan - 13:05:02 10° S 13:14:49 19° SSE 13:22:51 10° ESE daylight
24 Jan - 15:12:15 10° SW 15:25:43 42° SSE 15:34:26 10° E daylight
24 Jan - 17:24:04 10° WSW 17:35:51 68° S 17:42:44 10° E daylight
24 Jan - 19:36:39 10° W 19:45:02 70° S 19:50:10 10° ESE daylight
24 Jan - 21:48:12 10° W 21:52:59 28° SSW 21:56:38 10° SSE daylight
25 Jan - 13:20:33 10° SSW 13:32:51 26° SSE 13:42:19 10° E daylight
25 Jan - 15:29:39 10° SW 15:43:44 51° SSE 15:52:34 10° E daylight
25 Jan - 17:42:11 10° WSW 17:53:51 74° S 18:00:36 10° E daylight
25 Jan - 19:54:50 10° W 20:02:55 63° SSW 20:07:56 10° ESE daylight
25 Jan - 22:06:45 10° W 22:10:32 19° SW 22:13:39 10° SSE daylight
26 Jan - 11:35:23 10° SSE 11:39:41 11° SE 11:43:45 10° SE visible
26 Jan - 13:36:53 10° SSW 13:50:51 34° SSE 14:01:07 10° E daylight
26 Jan - 15:47:21 10° WSW 16:01:45 60° SSE 16:10:34 10° E daylight
26 Jan - 18:00:24 10° W 18:11:51 77° S 18:18:28 10° E daylight
26 Jan - 20:13:02 10° W 20:20:44 52° SSW 20:25:36 10° SE daylight
26 Jan - 22:26:05 10° WSW 22:28:01 12° SW 22:29:46 10° SSW daylight
27 Jan - 11:47:53 10° S 11:57:38 18° SE 12:06:16 10° ESE visible
27 Jan - 13:53:44 10° SW 14:08:51 42° SSE 14:19:32 10° E daylight
27 Jan - 16:05:16 10° WSW 16:19:47 68° SSE 16:28:31 10° E daylight
27 Jan - 18:18:39 10° W 18:29:50 76° S 18:36:18 10° E daylight
27 Jan - 20:31:17 10° W 20:38:26 40° SSW 20:43:07 10° SE daylight
28 Jan - 12:02:58 10° S 12:15:33 24° SE 12:26:13 10° E visible
28 Jan - 14:10:58 10° SW 14:26:51 51° SSE 14:37:44 10° E daylight
28 Jan - 16:23:23 10° WSW 16:37:50 74° S 16:46:25 10° E daylight
28 Jan - 18:36:55 10° W 18:47:48 72° S 18:54:07 10° ESE daylight
28 Jan - 20:49:39 10° W 20:56:01 30° SSW 21:00:24 10° SSE daylight
